When you browse on this site, cookies collect data to enhance your experience and personalize the content and advertising you see.
Visit our Privacy Policy to learn more. By continuing to use the site, you agree to this use of cookies and data.
  • In United Kingdom
  • List of Countries
  • For 7 days
  • Water Temperature
  • Weather Map
  • Weather Widgets
  • user-avatar
    Login

    Hourly Weather Dolhasca

    Today, 19 September, Thursday

    Time Temperature Precipitation Wind Pressure Humidity
    00:00 +6°C° 0 mm 2 mps 737 mmHg 71%
    01:00 +6°C° 0 mm 2 mps 737 mmHg 72%
    02:00 +5°C° 0 mm 2 mps 737 mmHg 73%
    03:00 +5°C° 0 mm 2 mps 737 mmHg 73%
    04:00 +6°C° 0 mm 1 mps 737 mmHg 73%
    05:00 +5°C° 0 mm 1 mps 737 mmHg 73%
    06:00 +7°C° 0 mm 1 mps 738 mmHg 64%
    07:00 +9°C° 0 mm 1 mps 738 mmHg 55%
    08:00 +11°C° 0 mm 1 mps 738 mmHg 47%
    09:00 +13°C° 0 mm 1 mps 738 mmHg 41%
    10:00 +15°C° 0 mm 1 mps 738 mmHg 35%
    11:00 +18°C° 0 mm 1 mps 738 mmHg 29%
    12:00 +19°C° 0 mm 1 mps 737 mmHg 30%
    13:00 +18°C° 0 mm 2 mps 737 mmHg 30%
    14:00 +18°C° 0 mm 2 mps 736 mmHg 30%
    15:00 +17°C° 0 mm 2 mps 736 mmHg 32%
    16:00 +17°C° 0 mm 3 mps 736 mmHg 33%
    17:00 +16°C° 0 mm 3 mps 736 mmHg 35%
    18:00 +14°C° 0 mm 3 mps 736 mmHg 44%
    19:00 +12°C° 0 mm 3 mps 737 mmHg 52%
    20:00 +10°C° 0 mm 3 mps 737 mmHg 61%
    21:00 +9°C° 0.1 mm 3 mps 737 mmHg 66%
    22:00 +9°C° 0.1 mm 3 mps 737 mmHg 72%
    23:00 +8°C° 0.1 mm 3 mps 737 mmHg 77%

    Tomorrow, 20 September, Friday

    Time Temperature Precipitation Wind Pressure Humidity
    00:00 +8°C° 0.1 mm 2 mps 737 mmHg 80%
    01:00 +7°C° 0.1 mm 2 mps 737 mmHg 82%
    02:00 +7°C° 0.1 mm 1 mps 737 mmHg 85%
    03:00 +7°C° 0 mm 1 mps 737 mmHg 85%
    04:00 +6°C° 0 mm 1 mps 737 mmHg 85%
    05:00 +6°C° 0 mm 1 mps 737 mmHg 85%
    06:00 +6°C° 0 mm 2 mps 737 mmHg 78%
    07:00 +8°C° 0 mm 3 mps 737 mmHg 71%
    08:00 +8°C° 0 mm 4 mps 737 mmHg 64%
    09:00 +10°C° 0.1 mm 5 mps 737 mmHg 60%
    10:00 +11°C° 0.1 mm 6 mps 737 mmHg 55%
    11:00 +12°C° 0.1 mm 7 mps 738 mmHg 50%
    12:00 +14°C° 0.2 mm 7 mps 737 mmHg 46%
    13:00 +14°C° 0.2 mm 7 mps 737 mmHg 42%
    14:00 +15°C° 0.2 mm 8 mps 737 mmHg 38%
    15:00 +14°C° 0 mm 7 mps 737 mmHg 37%
    16:00 +12°C° 0 mm 7 mps 737 mmHg 37%
    17:00 +12°C° 0 mm 7 mps 737 mmHg 37%
    18:00 +10°C° 0 mm 5 mps 738 mmHg 44%
    19:00 +8°C° 0 mm 4 mps 738 mmHg 50%
    20:00 +7°C° 0 mm 2 mps 739 mmHg 57%
    21:00 +6°C° 0 mm 2 mps 739 mmHg 60%
    22:00 +6°C° 0 mm 2 mps 739 mmHg 63%
    23:00 +5°C° 0 mm 2 mps 740 mmHg 67%

    Day after tomorrow, 21 September, Saturday

    Time Temperature Precipitation Wind Pressure Humidity
    00:00 +5°C° 0 mm 2 mps 740 mmHg 66%
    01:00 +5°C° 0 mm 2 mps 740 mmHg 66%
    02:00 +5°C° 0 mm 2 mps 740 mmHg 65%
    03:00 +5°C° 0 mm 2 mps 740 mmHg 67%
    04:00 +4°C° 0 mm 2 mps 740 mmHg 68%
    05:00 +4°C° 0 mm 2 mps 740 mmHg 70%
    06:00 +6°C° 0 mm 2 mps 740 mmHg 63%
    07:00 +8°C° 0 mm 2 mps 740 mmHg 56%
    08:00 +9°C° 0 mm 2 mps 741 mmHg 49%
    09:00 +12°C° 0 mm 2 mps 741 mmHg 44%
    10:00 +13°C° 0 mm 3 mps 741 mmHg 38%
    11:00 +16°C° 0 mm 3 mps 741 mmHg 32%
    12:00 +17°C° 0 mm 3 mps 740 mmHg 30%
    13:00 +18°C° 0 mm 3 mps 740 mmHg 27%
    14:00 +18°C° 0 mm 3 mps 739 mmHg 25%
    15:00 +18°C° 0 mm 2 mps 739 mmHg 26%
    16:00 +18°C° 0 mm 2 mps 739 mmHg 27%
    17:00 +18°C° 0 mm 2 mps 738 mmHg 28%
    18:00 +15°C° 0 mm 1 mps 738 mmHg 34%
    19:00 +13°C° 0 mm 1 mps 739 mmHg 40%
    20:00 +9°C° 0 mm 0 mps 739 mmHg 46%
    21:00 +9°C° 0 mm 0 mps 739 mmHg 47%
    22:00 +9°C° 0 mm 1 mps 739 mmHg 48%
    23:00 +9°C° 0 mm 1 mps 739 mmHg 50%

    22 September, Sunday

    Time Temperature Precipitation Wind Pressure Humidity
    00:00 +9°C° 0 mm 1 mps 739 mmHg 51%
    01:00 +8°C° 0 mm 1 mps 739 mmHg 52%
    02:00 +8°C° 0 mm 1 mps 738 mmHg 54%
    03:00 +8°C° 0 mm 1 mps 738 mmHg 55%
    04:00 +8°C° 0 mm 1 mps 738 mmHg 57%
    05:00 +7°C° 0 mm 1 mps 738 mmHg 59%
    06:00 +9°C° 0 mm 1 mps 738 mmHg 54%
    07:00 +11°C° 0 mm 1 mps 738 mmHg 48%
    08:00 +13°C° 0 mm 1 mps 738 mmHg 43%
    09:00 +15°C° 0 mm 1 mps 738 mmHg 37%
    10:00 +17°C° 0 mm 0 mps 738 mmHg 32%
    11:00 +20°C° 0 mm 0 mps 738 mmHg 26%
    12:00 +21°C° 0 mm 0 mps 737 mmHg 25%
    13:00 +22°C° 0 mm 0 mps 737 mmHg 24%
    14:00 +25°C° 0 mm 1 mps 736 mmHg 22%
    15:00 +24°C° 0 mm 1 mps 736 mmHg 24%
    16:00 +24°C° 0 mm 1 mps 735 mmHg 25%
    17:00 +23°C° 0 mm 2 mps 735 mmHg 27%
    18:00 +20°C° 0 mm 1 mps 735 mmHg 32%
    19:00 +18°C° 0 mm 1 mps 735 mmHg 37%
    20:00 +14°C° 0 mm 1 mps 735 mmHg 42%
    21:00 +13°C° 0 mm 1 mps 735 mmHg 43%
    22:00 +13°C° 0 mm 1 mps 735 mmHg 45%
    23:00 +12°C° 0 mm 1 mps 735 mmHg 46%

    23 September, Monday

    Time Temperature Precipitation Wind Pressure Humidity
    00:00 +12°C° 0 mm 1 mps 735 mmHg 47%
    01:00 +11°C° 0 mm 1 mps 735 mmHg 48%
    02:00 +11°C° 0 mm 1 mps 734 mmHg 49%
    03:00 +11°C° 0 mm 1 mps 734 mmHg 49%
    04:00 +10°C° 0 mm 1 mps 734 mmHg 49%
    05:00 +9°C° 0 mm 2 mps 733 mmHg 49%
    06:00 +12°C° 0 mm 2 mps 733 mmHg 46%
    07:00 +13°C° 0 mm 2 mps 733 mmHg 42%
    08:00 +14°C° 0 mm 2 mps 733 mmHg 39%
    09:00 +16°C° 0 mm 3 mps 733 mmHg 35%
    10:00 +19°C° 0 mm 3 mps 733 mmHg 31%
    11:00 +21°C° 0 mm 3 mps 733 mmHg 27%
    12:00 +21°C° 0 mm 3 mps 732 mmHg 27%
    13:00 +22°C° 0 mm 3 mps 732 mmHg 28%
    14:00 +22°C° 0 mm 3 mps 731 mmHg 28%
    15:00 +21°C° 0 mm 2 mps 731 mmHg 34%
    16:00 +19°C° 0 mm 2 mps 730 mmHg 41%
    17:00 +18°C° 0 mm 2 mps 730 mmHg 47%
    18:00 +17°C° 0 mm 2 mps 730 mmHg 49%
    19:00 +17°C° 0 mm 2 mps 729 mmHg 51%
    20:00 +16°C° 0 mm 2 mps 729 mmHg 52%
    21:00 +16°C° 0 mm 1 mps 729 mmHg 57%
    22:00 +15°C° 0 mm 1 mps 729 mmHg 62%
    23:00 +15°C° 0 mm 1 mps 728 mmHg 67%

    24 September, Tuesday

    Time Temperature Precipitation Wind Pressure Humidity
    00:00 +14°C° 0 mm 1 mps 728 mmHg 68%
    01:00 +14°C° 0 mm 1 mps 728 mmHg 69%
    02:00 +14°C° 0 mm 1 mps 728 mmHg 70%
    03:00 +14°C° 0 mm 1 mps 728 mmHg 73%
    04:00 +13°C° 0 mm 1 mps 728 mmHg 76%
    05:00 +13°C° 0 mm 1 mps 727 mmHg 80%
    06:00 +14°C° 0 mm 1 mps 727 mmHg 79%
    07:00 +14°C° 0 mm 1 mps 727 mmHg 78%
    08:00 +15°C° 0 mm 1 mps 728 mmHg 77%
    09:00 +15°C° 0.1 mm 1 mps 728 mmHg 78%
    10:00 +15°C° 0.1 mm 1 mps 728 mmHg 79%
    11:00 +15°C° 0.1 mm 2 mps 729 mmHg 80%
    12:00 +15°C° 0.1 mm 2 mps 729 mmHg 81%
    13:00 +14°C° 0.1 mm 3 mps 728 mmHg 82%
    14:00 +14°C° 0.1 mm 4 mps 728 mmHg 83%
    15:00 +14°C° 0.2 mm 3 mps 729 mmHg 84%
    16:00 +13°C° 0.2 mm 3 mps 729 mmHg 85%
    17:00 +13°C° 0.2 mm 3 mps 729 mmHg 85%
    18:00 +14°C° 0.2 mm 2 mps 729 mmHg 85%
    19:00 +13°C° 0.2 mm 2 mps 730 mmHg 85%
    20:00 +13°C° 0.2 mm 1 mps 730 mmHg 85%
    21:00 +13°C° 0 mm 1 mps 730 mmHg 86%
    22:00 +13°C° 0 mm 1 mps 730 mmHg 86%
    23:00 +12°C° 0 mm 1 mps 730 mmHg 86%
    Show more